Tracking 33180 objects as of 11-Feb-2026
HD Live streaming from Space Station
objects crossing your sky now

STARLINK-5435

Track STARLINK-5435 now!
10-day predictions
STARLINK-5435 is classified as:


NORAD ID: 54797
Int'l Code: 2022-175AR
Perigee: 546.0 km
Apogee: 547.7 km
Inclination: 53.2 °
Period: 95.4 minutes
Semi major axis: 6917 km
RCS: Unknown
Launch date: December 17, 2022
Source: United States (US)
Launch site: AIR FORCE EASTERN TEST RANGE (AFETR)
Your satellite tracking list
Your tracking list is empty




NASA's NSSDC Master Catalog

Two Line Element Set (TLE):
1 54797U 22175AR  26041.61377761  .00000454  00000-0  46588-4 0  9998
2 54797  53.2163 165.5140 0001262  75.6250 284.4882 15.08843567175839
Source of the keplerian elements: AFSPC